Imperial, NE

5:36 PM MST on January 24, 2017 (GMT -0700)
Imperial Municipal

Weather History for KIML - January, 2014

Change the Weather History Date:

Tuesday, January 21, 2014

  Actual Average Record
Temperature  
Mean Temperature 34 °F 28 °F  
Max Temperature 59 °F 41 °F 71 °F (1950)
Min Temperature 9 °F 16 °F -25 °F (1930)
Degree Days  
Heating Degree Days 31 36  
Month to date heating degree days 707 776  
Cooling Degree Days 0 0  
Month to date cooling degree days 0 0  
Year to date cooling degree days 0 0  
Moisture  
Dew Point 11 °F    
Average Humidity 50    
Maximum Humidity 88    
Minimum Humidity 11    
Precipitation  
Precipitation 0.00 in 0.01 in 0.40 in (1917)
Sea Level Pressure  
Sea Level Pressure 30.23 in    
Wind  
Wind Speed 13 mph (WNW)    
Max Wind Speed 35 mph    
Max Gust Speed 44 mph    
Visibility 10 miles    
Events      
T = Trace of Precipitation, MM = Missing Value Source: NWS Daily Summary

Daily Weather History Graph

Daily Weather History Graph

Search for Another Location

Airport or City:

Trip Planner

Search our weather history database for the weather conditions in past years. The results will help you decide how hot, cold, wet, or windy it might be!

Date:

Astronomy

Jan. 21, 2014 Rise Set
Actual Time 7:04 AM MST 4:51 PM MST
Civil Twilight 6:35 AM MST 5:20 PM MST
Nautical Twilight 6:01 AM MST 5:54 PM MST
Astronomical Twilight 5:29 AM MST 6:26 PM MST
Moon 10:27 PM MST (1/21) 9:34 AM MST (1/21)
Length of Visible Light 10h 45m
Length of Day
9h 46m
Waning Gibbous, 74% of the Moon is Illuminated
Jan 21
Waning Gibbous
Jan 23
Last Quarter
Jan 30
New
Feb 6
First Quarter
Feb 14
Full

Hourly Weather History & Observations

Time (MST) Temp. Windchill Dew Point Humidity Pressure Visibility Wind Dir Wind Speed Gust Speed Precip Events Conditions
12:53 AM 16.0 °F - 10.9 °F 81% 30.45 in 10.0 mi Calm Calm - N/A   Clear
1:53 AM 14.0 °F 5.1 °F 10.0 °F 84% 30.45 in 10.0 mi SW 5.8 mph - N/A   Clear
2:53 AM 16.0 °F 5.3 °F 10.9 °F 81% 30.43 in 10.0 mi SSW 8.1 mph - N/A   Clear
3:53 AM 12.0 °F 4.1 °F 9.0 °F 88% 30.42 in 10.0 mi South 4.6 mph - N/A   Clear
4:53 AM 10.9 °F 0.2 °F 7.0 °F 84% 30.39 in 10.0 mi SSE 6.9 mph - N/A   Clear
5:53 AM 12.9 °F 0.7 °F 9.0 °F 84% 30.36 in 10.0 mi SSE 9.2 mph - N/A   Clear
6:53 AM 10.0 °F 0.4 °F 7.0 °F 87% 30.34 in 10.0 mi SSE 5.8 mph - N/A   Clear
7:53 AM 18.0 °F 7.7 °F 12.9 °F 81% 30.30 in 10.0 mi South 8.1 mph - N/A   Clear
9:53 AM 30.0 °F 23.2 °F 18.0 °F 61% 30.24 in 10.0 mi West 6.9 mph - N/A   Clear
10:53 AM 42.1 °F 37.1 °F 19.0 °F 40% 30.18 in 10.0 mi West 8.1 mph - N/A   Clear
11:53 AM 55.0 °F - 10.0 °F 17% 30.11 in 10.0 mi NNW 24.2 mph 31.1 mph N/A   Clear
12:53 PM 57.9 °F - 3.9 °F 11% 30.06 in 10.0 mi NW 29.9 mph 38.0 mph N/A   Clear
1:53 PM 57.9 °F - 7.0 °F 13% 30.06 in 10.0 mi NW 25.3 mph 35.7 mph N/A   Clear
2:53 PM 57.9 °F - 8.1 °F 14% 30.06 in 7.0 mi NNW 29.9 mph 40.3 mph N/A   Mostly Cloudy
3:53 PM 55.9 °F - 10.0 °F 16% 30.08 in 10.0 mi NNW 28.8 mph 34.5 mph N/A   Partly Cloudy
4:53 PM 51.1 °F - 10.9 °F 20% 30.11 in 10.0 mi NNW 20.7 mph 31.1 mph N/A   Clear
5:53 PM 46.0 °F 39.0 °F 10.9 °F 24% 30.15 in 10.0 mi NNW 17.3 mph - N/A   Clear
6:53 PM 43.0 °F 35.7 °F 10.9 °F 27% 30.17 in 10.0 mi NNW 15.0 mph - N/A   Clear
7:53 PM 41.0 °F 33.5 °F 12.0 °F 31% 30.19 in 10.0 mi NW 13.8 mph - N/A   Clear
8:53 PM 37.9 °F 29.2 °F 12.9 °F 36% 30.11 in 10.0 mi NNW 15.0 mph - N/A   Scattered Clouds
9:53 PM 30.0 °F 22.4 °F 12.0 °F 47% 30.20 in 10.0 mi NNW 8.1 mph - N/A   Clear
10:53 PM 26.1 °F 18.4 °F 12.0 °F 55% 30.17 in 10.0 mi NNW 6.9 mph - N/A   Clear
11:53 PM 26.1 °F 17.6 °F 12.0 °F 55% 30.15 in 10.0 mi NW 8.1 mph - N/A   Unknown